IW9DKU-3 Weather Reports


time (UTC)temp
C
wind
direction
speed
KPH
gust
KPH
rain 1hr
cm
rain 24hr
cm
rain mn
cm
humidity
%
barometer
mb
20260504045431 18 0.0 0.0 0.00 0.00 0.00 60 1027.6
20260504043428 18 0.0 0.0 0.00 0.00 0.00 60 1027.5
20260504041424 18 0.0 0.0 0.00 0.00 0.00 59 1027.4
20260504035502 18 0.0 0.0 0.00 0.00 0.00 59 1027.3
20260504035421 18 0.0 0.0 0.00 0.00 0.00 59 1027.3
20260504033417 18 0.0 0.0 0.00 0.00 0.00 59 1027.3
20260504025411 18 0.0 0.0 0.00 0.00 0.00 60 1027.4
20260504023407 18 0.0 0.0 0.00 0.00 0.00 60 1027.6
20260504022233 18 0.0 0.0 0.00 0.00 0.00 60 1027.5
20260504021404 18 0.0 0.0 0.00 0.00 0.00 60 1027.5
20260504015400 18 0.0 0.0 0.00 0.00 0.00 59 1027.5
20260504013357 18 0.0 0.0 0.00 0.00 0.00 58 1027.5
20260504011353 18 0.0 0.0 0.00 0.00 0.00 57 1027.5
20260504005350 18 0.0 0.0 0.00 0.00 0.00 59 1027.5
20260504003346 18 0.0 0.0 0.00 0.00 0.00 58 1027.6
20260504001343 18 0.0 0.0 0.00 0.00 0.00 57 1027.6
20260503235339 18 0.0 0.0 0.00 0.00 0.00 59 1027.8
20260503233336 18 0.0 0.0 0.00 0.00 0.00 59 1028.0
20260503231333 18 0.0 0.0 0.00 0.00 0.00 59 1028.1
20260503225329 18 0.0 0.0 0.00 0.00 0.00 59 1028.2
20260503223326 19 0.0 0.0 0.00 0.00 0.00 59 1028.3
20260503221322 19 0.0 0.0 0.00 0.00 0.00 59 1028.3
20260503215319 19 0.0 0.0 0.00 0.00 0.00 59 1028.3
20260503213315 19 0.0 0.0 0.00 0.00 0.00 60 1028.1
20260503211312 19 0.0 0.0 0.00 0.00 0.00 59 1028.2
20260503205308 19 0.0 0.0 0.00 0.00 0.00 59 1028.2
20260503203305 19 0.0 0.0 0.00 0.00 0.00 59 1028.1
20260503201301 20 0.0 0.0 0.00 0.00 0.00 58 1028.1
20260503195258 20 0.0 0.0 0.00 0.00 0.00 58 1027.9
20260503193254 20 0.0 0.0 0.00 0.00 0.00 58 1027.9
20260503191251 20 0.0 0.0 0.00 0.00 0.00 57 1027.8
20260503185248 20 0.0 0.0 0.00 0.00 0.00 57 1027.6
20260503183244 20 0.0 0.0 0.00 0.00 0.00 57 1027.5
20260503181241 20 0.0 0.0 0.00 0.00 0.00 56 1027.3
20260503175237 20 0.0 0.0 0.00 0.00 0.00 56 1027.1
20260503173234 20 0.0 0.0 0.00 0.00 0.00 56 1027.1
20260503171230 20 0.0 0.0 0.00 0.00 0.00 55 1027.1
20260503131149 21 0.0 0.0 0.00 0.00 0.00 50 1027.6
20260503081057 19 0.0 0.0 0.00 0.00 0.00 58 1028.6
20260503071047 18 0.0 0.0 0.00 0.00 0.00 61 1028.5
20260503055033 17 0.0 0.0 0.00 0.00 0.00 61 1028.4
20260503053029 17 0.0 0.0 0.00 0.00 0.00 62 1028.3